Wetbulb
34.60 36.25 36.02 34.82 34.74 35.98 34.90 33.73 29.84 32.31 32.78 36.85 38.72 39.14 39.76 40.22 39.72 39.51 39.23 39.91 40.03 38.33 37.35 36.30 34.89 34.77 34.46 34.56 35.16 35.41 34.68 34.98 36.24 37.73 37.35 36.78 36.31 36.46 36.27 36.99 37.44 37.03 33.33 31.88
30.49 35.95 35.56 32.28 34.58 34.34 34.42 34.72 34.91 34.68 34.53 39.55 40.09 40.51 39.87 39.78 39.07 38.39 39.12 40.68 40.33 39.87 37.90 35.91 34.62 33.58 34.45 34.51 34.68 35.18 34.12 35.19 36.74 36.58 37.46 37.36 37.10 36.77 38.29 37.41 37.11 31.01 34.09 31.37
24.14 30.88 30.17 24.88 31.81 36.05 35.69 37.03 35.66 31.34 36.47 38.97 38.61 39.56 38.45 38.09 38.51 38.22 39.32 39.16 38.68 38.32 35.88 34.96 33.79 33.90 32.99 33.67 34.40 34.06 33.65 35.85 36.16 35.70 36.08 35.55 35.92 36.37 35.62 34.61 33.02 32.00 28.61 27.93
21.41 22.71 17.52 32.91 37.97 38.96 37.08 37.96 38.08 37.34 38.24 39.31 39.59 39.32 39.06 38.80 38.25 38.28 38.33 38.47 38.24 36.75 34.62 34.02 32.96 32.72 33.28 33.34 33.31 32.93 33.24 34.86 35.08 34.76 34.33 34.32 34.56 34.45 33.49 34.22 32.56 27.95 27.41 27.83
20.01 20.93 27.07 33.25 37.73 37.46 35.32 35.07 39.60 37.80 37.82 38.41 39.01 37.20 36.62 39.39 38.93 38.41 38.21 38.21 36.75 35.09 34.06 32.80 32.43 32.89 32.36 32.16 32.17 32.32 32.57 33.75 34.40 34.41 34.02 33.82 33.19 32.74 32.50 31.74 28.44 27.19 28.12 27.93
23.99 15.99 15.98 29.56 38.40 41.48 39.54 29.25 40.80 39.56 38.12 37.39 36.72 28.98 34.80 39.09 39.16 39.40 39.41 36.13 35.11 33.68 32.53 31.98 32.35 32.16 31.36 31.67 31.73 31.53 32.27 33.64 34.18 33.94 33.40 32.53 31.55 31.05 30.71 26.34 28.01 28.01 27.60 26.56
18.91 14.99 25.02 33.68 40.14 41.31 29.74 30.17 40.54 40.70 39.59 37.69 36.06 36.06 37.58 39.82 40.48 37.79 34.99 33.62 33.55 32.80 31.77 31.79 32.20 32.74 31.89 31.29 30.68 32.43 33.46 33.27 32.67 32.25 30.96 30.65 29.39 28.64 27.47 27.80 27.66 25.50 26.21 24.51
24.58 18.69 22.57 38.51 39.10 33.92 37.32 38.06 41.65 40.56 40.21 39.56 38.90 39.34 39.93 40.64 35.76 33.37 32.13 32.04 32.29 31.62 31.36 32.20 32.65 31.75 30.49 29.68 31.79 32.48 32.50 32.09 31.17 30.64 30.61 30.75 27.73 26.37 26.78 25.48 24.55 22.61 16.06 18.04
30.87 30.37 37.32 39.15 39.74 40.45 41.48 40.89 40.78 40.79 41.07 41.17 40.52 39.78 39.82 33.43 32.22 31.66 31.24 30.46 31.35 30.72 31.44 31.97 31.91 31.46 29.73 30.99 32.23 32.07 31.26 30.68 30.02 29.81 29.49 28.60 26.42 24.66 24.37 23.30 19.92 21.11 22.03 15.38
33.15 37.94 38.73 39.76 42.01 43.76 43.14 42.51 42.34 42.46 42.05 41.62 40.47 38.19 33.58 31.79 31.58 31.22 29.87 29.71 30.46 30.52 29.73 29.95 31.28 31.79 31.89 32.12 32.45 31.43 30.52 30.20 30.78 29.71 28.74 27.97 26.55 26.33 24.21 20.34 19.96 23.20 20.39 18.53
33.48 37.88 39.88 42.15 43.04 43.89 43.88 43.02 42.72 42.99 42.64 42.04 38.03 32.91 33.56 32.69 31.28 30.45 30.06 30.57 30.42 29.41 29.74 30.05 31.03 31.19 30.86 30.92 31.34 30.19 29.90 31.17 29.68 28.94 27.48 26.41 26.08 25.45 25.05 25.47 25.29 21.59 19.18 18.19
32.16 38.84 39.96 39.35 43.00 44.12 42.84 42.69 43.42 41.93 38.49 36.20 36.03 33.73 33.30 30.64 30.54 30.31 29.64 29.73 29.06 29.63 29.65 29.93 30.83 29.83 29.79 30.75 30.55 30.44 31.31 30.80 30.15 30.66 27.20 27.18 25.74 24.84 29.35 29.51 29.73 29.98 28.97 19.24
40.02 41.30 41.17 42.11 43.40 44.22 43.63 43.67 43.88 37.31 35.46 34.54 34.34 33.78 32.46 30.58 30.83 31.16 29.96 29.36 28.89 29.53 29.97 29.70 29.40 28.71 29.42 29.80 29.97 31.53 29.49 30.44 31.75 30.09 27.05 25.03 23.14 22.24 16.70 23.63 28.86 29.87 30.32 27.85
44.02 43.75 40.10 41.87 42.18 43.96 40.46 38.46 37.96 36.12 35.43 34.53 33.60 33.22 31.23 30.06 30.76 30.20 29.63 29.72 30.04 29.60 29.24 28.75 29.11 30.09 30.58 30.41 32.34 31.47 30.50 27.21 28.47 26.65 27.35 23.55 22.07 19.45 17.30 17.38 14.98 16.33 23.17 28.58
43.69 44.47 43.14 43.60 42.08 37.19 35.76 34.93 33.80 32.98 32.90 32.48 32.93 31.19 30.09 29.28 28.98 29.68 30.03 30.01 29.61 29.01 28.60 29.75 29.81 29.53 30.63 31.77 31.94 31.99 30.50 29.88 27.03 26.46 24.37 21.14 22.82 19.44 18.05 17.46 15.98 15.51 16.37 20.74
42.83 42.03 41.84 38.75 35.81 35.57 35.17 34.89 32.90 31.61 31.82 31.63 30.35 29.25 29.89 30.27 30.05 29.73 29.77 29.63 25.57 26.45 27.54 29.27 29.01 29.45 30.86 32.35 32.90 33.19 30.94 28.85 24.95 24.19 23.86 25.39 24.03 18.43 20.65 18.93 15.98 14.77 13.20 13.64
37.37 35.33 33.64 33.75 35.31 36.45 35.94 35.26 34.08 32.96 31.96 29.75 29.36 28.27 29.05 25.23 25.25 27.89 27.47 25.56 20.84 21.10 24.43 25.11 26.83 31.50 31.29 32.04 33.20 32.90 30.79 28.94 26.43 26.84 25.96 20.86 18.94 18.26 21.45 17.53 17.34 13.40 15.36 11.46
38.09 37.66 37.52 36.54 34.69 33.06 32.91 33.17 32.21 30.51 29.72 29.47 21.93 18.79 18.40 17.74 21.51 22.99 23.12 22.72 19.61 22.31 25.72 27.18 26.97 30.24 31.08 32.13 32.62 31.88 29.71 28.19 26.93 26.90 26.84 22.01 18.09 15.94 15.82 18.65 19.47 14.33 14.16 13.42
35.41 35.06 35.42 35.70 36.16 34.34 32.18 29.64 28.60 28.31 24.47 21.05 20.14 22.48 19.86 19.08 23.05 22.76 21.20 18.38 20.70 22.74 27.20 24.54 27.10 27.40 30.36 29.22 31.02 30.67 28.94 25.97 22.69 20.45 19.56 17.11 10.99 12.44 12.64 17.08 20.08 14.34 15.68 12.95
35.99 36.22 34.21 31.64 30.20 28.25 28.23 26.98 25.48 27.20 29.17 24.09 18.65 19.04 25.25 22.53 17.82 18.53 18.04 22.18 25.60 28.13 27.00 26.66 27.91 29.58 28.79 29.73 31.14 30.75 30.03 26.32 22.10 20.41 10.09 11.92 8.89 10.20 12.08 16.73 19.24 19.10 14.87 11.19
30.77 30.28 28.87 28.65 27.67 26.29 25.50 23.28 21.53 24.32 26.03 25.63 27.60 27.31 27.61 28.15 28.69 28.58 25.61 24.65 26.83 24.98 26.50 27.93 30.28 30.70 30.83 31.25 32.01 31.84 30.40 26.51 22.33 20.34 20.28 19.28 17.55 15.65 16.34 19.13 21.10 21.02 18.92 14.79
30.80 28.95 27.36 26.46 25.60 26.71 25.65 24.94 28.06 28.11 24.93 24.55 27.08 29.76 29.61 28.47 26.30 29.85 27.87 26.58 28.46 23.79 25.45 27.08 30.08 30.32 30.72 30.92 31.78 31.81 30.93 28.47 27.51 27.45 24.98 24.27 22.93 22.39 22.05 21.51 21.18 20.99 21.44 20.62
30.15 29.33 28.17 26.00 26.01 27.57 26.96 25.31 24.21 23.62 23.58 23.94 23.43 24.76 27.49 26.96 29.60 29.07 28.15 26.56 24.97 24.26 25.93 27.45 26.91 28.50 31.34 31.66 32.02 31.82 31.46 30.54 29.21 27.92 27.25 27.56 26.53 24.67 23.82 23.39 23.66 23.91 25.39 24.97
30.17 30.70 28.79 26.03 23.26 24.31 26.13 29.96 27.03 26.42 23.10 24.46 24.19 22.91 24.66 30.08 31.23 30.90 30.41 26.53 22.25 24.50 29.80 31.64 30.51 30.84 31.82 32.05 31.85 31.23 30.18 29.99 30.27 29.54 29.52 28.97 28.40 27.67 26.03 25.26 25.29 25.47 24.65 23.08
27.66 28.57 26.74 24.77 27.21 28.69 29.47 29.90 27.59 26.62 25.36 26.15 28.08 27.68 31.05 31.96 31.03 27.69 26.33 28.46 29.32 29.24 28.00 28.47 29.52 29.54 30.06 31.06 30.96 30.74 30.87 30.71 30.29 29.71 29.34 28.37 27.76 27.39 27.20 27.35 27.39 27.20 26.80 26.01
30.35 28.15 28.00 29.52 28.17 27.97 28.19 26.35 24.19 27.61 28.68 27.10 26.22 24.96 23.74 23.27 25.08 28.61 28.43 28.83 27.50 26.65 24.86 28.36 27.57 25.36 22.29 21.04 20.69 21.38 23.01 25.72 28.10 29.66 29.90 29.80 29.18 28.88 28.58 28.65 28.51 28.19 27.81 27.97
27.04 24.04 26.72 27.19 27.99 28.25 26.45 28.82 29.50 29.80 30.46 28.15 27.72 29.99 28.70 28.40 25.74 28.06 28.13 23.90 22.09 21.03 20.84 17.78 15.65 14.78 15.06 12.44 11.19 11.98 13.50 14.48 14.68 15.29 16.83 20.01 25.41 29.97 29.82 29.50 29.23 29.04 28.40 27.71
MSLP
1020.65 1020.09 1019.31 1018.95 1019.02 1019.47 1020.19 1020.75 1021.51 1021.15 1021.37 1021.10 1021.55 1022.06 1022.58 1023.11 1023.56 1023.83 1024.09 1024.18 1024.26 1024.43 1024.50 1024.69 1024.85 1024.91 1024.87 1024.70 1024.43 1024.19 1024.15 1024.14 1024.11 1023.89 1023.71 1023.41 1023.18 1022.84 1022.71 1022.65 1022.50 1022.33 1022.18 1022.11
1022.33 1021.51 1020.84 1019.97 1019.39 1019.51 1019.75 1020.11 1020.53 1020.80 1021.07 1020.89 1021.59 1022.27 1022.95 1023.28 1023.60 1023.81 1023.79 1023.74 1023.82 1023.99 1024.11 1024.52 1024.72 1024.69 1024.57 1024.39 1024.22 1024.07 1024.09 1024.09 1023.90 1023.70 1023.44 1023.14 1022.94 1022.72 1022.50 1022.37 1022.27 1022.04 1021.80 1021.90
1024.29 1023.28 1021.95 1020.77 1018.99 1018.85 1018.85 1019.28 1019.79 1020.76 1020.41 1021.11 1022.08 1022.46 1022.91 1023.34 1023.53 1023.58 1023.55 1023.59 1023.75 1023.88 1024.01 1024.22 1024.36 1024.35 1024.38 1024.17 1024.03 1024.10 1024.13 1023.91 1023.72 1023.60 1023.39 1023.02 1022.69 1022.47 1022.26 1022.11 1021.95 1021.97 1021.98 1022.12
1025.97 1024.69 1023.31 1019.76 1018.71 1018.35 1018.59 1019.09 1019.61 1020.12 1020.47 1020.96 1021.65 1022.27 1022.65 1022.86 1023.10 1023.31 1023.36 1023.51 1023.65 1023.71 1023.83 1023.86 1024.08 1024.32 1024.27 1024.10 1024.10 1024.11 1023.99 1023.84 1023.64 1023.43 1023.15 1022.77 1022.53 1022.34 1022.16 1021.91 1021.83 1021.92 1022.07 1022.31
1026.95 1025.76 1023.15 1019.96 1018.78 1018.38 1018.48 1019.09 1019.63 1020.37 1021.13 1021.69 1022.25 1022.75 1022.82 1022.59 1022.71 1022.85 1023.15 1023.24 1023.35 1023.43 1023.56 1023.84 1024.21 1024.22 1024.21 1024.18 1024.21 1024.09 1023.78 1023.68 1023.47 1023.18 1022.92 1022.62 1022.44 1022.07 1021.74 1021.65 1021.78 1022.04 1022.43 1022.53
1027.15 1026.49 1023.66 1019.66 1018.15 1017.70 1018.20 1018.97 1019.12 1020.19 1021.10 1021.83 1022.70 1023.29 1022.34 1022.10 1022.53 1022.76 1022.86 1023.13 1023.28 1023.45 1023.77 1023.98 1024.13 1024.22 1024.31 1024.20 1023.96 1023.74 1023.42 1023.26 1023.14 1023.00 1022.79 1022.47 1022.11 1021.82 1021.59 1021.69 1021.89 1022.24 1022.57 1022.70
1026.79 1025.42 1022.05 1019.07 1018.14 1017.91 1018.75 1018.75 1018.90 1019.67 1020.45 1021.49 1022.03 1021.71 1021.81 1021.94 1022.49 1022.68 1023.05 1023.32 1023.54 1023.77 1024.03 1024.14 1024.16 1024.16 1024.17 1023.99 1023.75 1023.24 1023.02 1022.96 1022.91 1022.73 1022.52 1022.16 1021.91 1021.67 1021.52 1021.67 1021.98 1022.40 1022.63 1022.97
1025.61 1024.30 1020.76 1018.13 1018.45 1018.23 1017.61 1017.91 1018.41 1019.26 1019.82 1020.50 1020.84 1021.27 1021.70 1022.04 1022.51 1022.95 1023.39 1023.65 1023.76 1024.01 1024.10 1024.11 1024.10 1024.14 1024.07 1023.89 1023.35 1023.07 1022.92 1022.85 1022.71 1022.53 1022.30 1022.05 1021.89 1021.71 1021.73 1022.03 1022.38 1022.77 1023.11 1023.41
1022.15 1020.15 1018.40 1017.60 1017.00 1016.69 1017.08 1017.58 1018.41 1018.89 1019.43 1020.06 1020.83 1021.43 1021.82 1022.44 1022.94 1023.35 1023.67 1023.84 1023.92 1024.09 1024.23 1024.24 1024.22 1024.14 1024.00 1023.69 1023.34 1023.13 1022.95 1022.67 1022.52 1022.41 1022.25 1022.04 1021.92 1022.03 1022.22 1022.48 1022.66 1022.92 1023.18 1023.38
1020.25 1018.28 1017.78 1017.44 1016.87 1016.92 1017.18 1017.40 1017.68 1018.19 1018.88 1019.69 1020.42 1020.92 1021.70 1022.60 1023.27 1023.64 1023.88 1023.99 1024.08 1024.31 1024.46 1024.40 1024.13 1023.99 1023.99 1023.60 1023.23 1023.05 1022.75 1022.35 1022.28 1022.48 1022.21 1021.96 1021.92 1022.04 1022.29 1022.47 1022.67 1022.83 1023.00 1023.20
1018.86 1017.84 1017.26 1016.81 1016.52 1016.51 1016.89 1017.25 1017.63 1018.12 1018.61 1019.40 1020.20 1021.15 1021.77 1022.73 1023.26 1023.59 1023.90 1024.10 1024.26 1024.45 1024.47 1024.27 1024.06 1023.96 1023.75 1023.41 1023.16 1023.00 1022.62 1022.38 1022.32 1022.42 1022.41 1022.09 1022.05 1022.13 1022.27 1022.14 1022.14 1022.27 1022.55 1022.76
1016.99 1016.36 1016.28 1016.10 1015.68 1016.01 1016.67 1017.00 1017.40 1018.09 1018.86 1019.62 1020.25 1021.29 1022.15 1022.91 1023.29 1023.63 1023.94 1024.14 1024.29 1024.27 1024.17 1024.04 1023.91 1023.76 1023.49 1023.18 1023.01 1022.83 1022.61 1022.29 1022.05 1022.07 1022.21 1022.13 1022.15 1022.13 1022.00 1021.88 1021.77 1021.77 1021.88 1021.99
1015.51 1015.18 1015.43 1015.34 1015.50 1015.70 1016.28 1016.85 1017.53 1018.35 1019.00 1019.87 1020.97 1021.76 1022.30 1022.99 1023.34 1023.70 1024.02 1024.15 1024.13 1024.06 1023.98 1023.85 1023.66 1023.58 1023.26 1022.91 1022.67 1022.42 1022.28 1021.93 1021.81 1021.79 1022.02 1022.09 1022.13 1022.14 1022.48 1021.51 1021.47 1021.42 1021.41 1021.58
1014.71 1015.23 1015.57 1015.66 1015.52 1015.86 1016.48 1017.20 1017.90 1018.88 1019.79 1020.80 1021.59 1022.27 1022.93 1023.28 1023.59 1023.82 1023.94 1023.95 1023.97 1024.01 1023.93 1023.75 1023.52 1023.19 1022.91 1022.68 1022.27 1021.96 1021.77 1021.66 1021.63 1021.57 1021.70 1021.88 1021.96 1021.93 1021.92 1021.85 1022.05 1021.55 1021.13 1021.22
1014.51 1014.72 1014.92 1015.09 1015.69 1016.51 1017.23 1017.97 1018.96 1019.90 1020.69 1021.75 1022.28 1022.77 1023.15 1023.43 1023.55 1023.60 1023.68 1023.80 1023.93 1023.94 1023.84 1023.61 1023.28 1022.86 1022.41 1022.15 1021.80 1021.49 1021.33 1021.25 1021.17 1021.16 1021.28 1021.63 1021.72 1021.74 1021.70 1021.62 1021.58 1021.54 1021.48 1021.22
1014.76 1015.18 1015.50 1015.93 1016.80 1017.72 1018.43 1019.23 1019.91 1021.39 1021.97 1022.76 1023.11 1023.17 1023.24 1023.25 1023.35 1023.59 1023.68 1023.79 1024.03 1023.90 1023.70 1023.36 1022.93 1022.22 1021.87 1021.56 1021.28 1020.96 1020.82 1020.79 1020.87 1020.99 1021.27 1021.36 1021.39 1021.46 1021.40 1021.40 1021.31 1021.29 1021.31 1021.29
1015.56 1016.31 1016.69 1017.39 1018.12 1019.01 1019.99 1020.80 1021.28 1021.98 1022.65 1022.98 1023.33 1023.29 1023.20 1023.56 1023.78 1023.63 1023.66 1023.68 1023.79 1023.71 1023.30 1022.76 1022.19 1021.66 1021.43 1021.10 1020.83 1020.48 1020.43 1020.41 1020.43 1020.48 1020.75 1020.88 1021.01 1021.12 1021.14 1021.03 1020.92 1020.92 1020.86 1020.44
1016.27 1016.92 1017.92 1018.67 1019.56 1020.51 1021.42 1021.78 1021.93 1022.38 1022.88 1023.13 1023.46 1023.62 1023.86 1023.86 1023.91 1023.81 1023.62 1023.46 1023.42 1023.25 1022.76 1022.00 1021.66 1021.42 1021.05 1020.67 1020.36 1020.04 1019.98 1019.88 1019.93 1020.05 1020.18 1020.45 1020.49 1020.54 1020.56 1020.46 1020.43 1020.48 1020.40 1019.99
1018.63 1019.10 1019.94 1020.30 1020.71 1021.05 1021.57 1022.13 1022.65 1023.20 1023.40 1023.26 1023.65 1023.83 1023.76 1023.72 1023.61 1023.42 1023.30 1023.32 1023.17 1022.77 1021.91 1021.40 1021.28 1020.96 1020.55 1020.12 1019.75 1019.51 1019.50 1019.39 1019.37 1019.49 1019.71 1019.89 1020.04 1020.01 1019.93 1019.86 1019.76 1019.73 1019.81 1019.87
1020.28 1020.61 1021.01 1021.24 1021.68 1022.27 1022.63 1022.85 1022.92 1022.82 1022.84 1023.11 1023.46 1023.67 1023.47 1023.10 1023.07 1023.03 1023.03 1022.99 1022.46 1021.94 1021.26 1020.93 1020.66 1020.33 1019.85 1019.49 1019.11 1018.89 1018.62 1018.61 1018.67 1018.89 1019.10 1019.24 1019.36 1019.29 1019.16 1019.05 1018.98 1018.92 1019.02 1019.19
1021.34 1021.59 1022.00 1022.30 1022.50 1022.75 1022.80 1022.86 1023.22 1023.07 1023.05 1023.10 1023.21 1023.16 1022.93 1022.65 1022.61 1022.50 1022.50 1022.30 1021.39 1020.98 1020.76 1020.43 1020.04 1019.55 1019.20 1018.85 1018.52 1018.11 1017.81 1017.86 1017.96 1018.16 1018.32 1018.40 1018.44 1018.43 1018.35 1018.11 1017.99 1017.96 1017.94 1018.17
1022.16 1022.33 1022.54 1022.80 1023.01 1023.14 1022.88 1022.86 1022.87 1022.84 1022.71 1022.65 1022.57 1022.49 1022.32 1021.99 1021.87 1021.77 1021.75 1021.70 1020.84 1020.55 1020.36 1019.94 1019.47 1019.01 1018.62 1018.27 1017.91 1017.43 1017.10 1017.07 1017.07 1017.20 1017.30 1017.33 1017.39 1017.36 1017.22 1017.04 1016.89 1016.75 1016.78 1016.81
1022.41 1022.54 1022.63 1022.67 1022.66 1022.77 1022.65 1022.59 1022.56 1022.59 1022.55 1022.29 1022.19 1021.93 1021.77 1021.45 1021.21 1021.06 1020.82 1020.59 1020.30 1020.05 1019.89 1019.36 1018.83 1018.45 1018.02 1017.77 1017.34 1016.92 1016.57 1016.36 1016.26 1016.10 1015.99 1015.84 1015.71 1015.75 1015.77 1015.69 1015.56 1015.56 1015.46 1015.45
1022.44 1022.62 1022.73 1022.72 1022.78 1022.93 1022.73 1022.23 1022.02 1021.78 1021.74 1021.58 1021.39 1021.26 1021.04 1020.61 1020.27 1020.12 1020.03 1019.84 1019.72 1019.56 1019.20 1018.74 1018.46 1018.12 1017.75 1017.33 1016.94 1016.68 1016.38 1015.99 1015.65 1015.41 1015.11 1014.83 1014.60 1014.42 1014.28 1014.10 1014.01 1014.06 1014.23 1014.30
1022.69 1022.80 1022.94 1023.06 1022.87 1022.59 1022.29 1021.88 1021.77 1021.41 1021.22 1021.05 1020.82 1020.39 1020.00 1019.79 1019.77 1019.29 1019.24 1019.18 1019.03 1018.92 1018.68 1018.36 1018.08 1017.91 1017.57 1017.15 1016.80 1016.35 1016.03 1015.71 1015.31 1014.96 1014.59 1014.22 1013.84 1013.47 1013.15 1012.88 1012.65 1012.47 1012.55 1012.78
1022.89 1022.96 1023.01 1022.80 1022.74 1022.53 1022.29 1021.96 1021.68 1021.32 1021.07 1020.83 1020.42 1019.98 1019.73 1019.42 1019.19 1018.99 1018.79 1018.60 1018.60 1018.47 1018.39 1018.23 1018.29 1018.27 1018.27 1018.07 1017.73 1017.31 1016.81 1016.19 1015.46 1014.62 1013.96 1013.34 1012.85 1012.43 1012.05 1011.69 1011.43 1011.28 1011.26 1011.33
1023.26 1023.27 1023.21 1023.01 1022.85 1022.67 1022.44 1022.06 1021.51 1020.90 1020.62 1020.41 1019.92 1019.55 1019.15 1018.91 1018.77 1018.53 1018.26 1018.29 1018.44 1018.56 1018.65 1018.81 1018.75 1018.77 1018.78 1018.63 1018.34 1017.97 1017.53 1017.04 1016.49 1015.90 1015.11 1014.15 1012.97 1011.57 1010.89 1010.53 1010.27 1010.14 1010.16 1010.29
Wind_Speed
3 4 2 1 3 5 6 5 6 7 8 8 9 10 8 7 6 6 5 5 5 4 5 4 5 4 3 2 2 1 3 3 5 5 6 6 6 7 5 5 5 6 6 5
1 6 6 3 5 6 5 4 6 3 4 3 5 6 7 8 7 6 5 4 3 1 5 5 6 5 4 5 5 2 3 5 6 6 6 7 6 6 5 5 5 5 5 4
4 4 5 7 8 7 4 3 6 7 8 8 6 9 8 8 7 7 6 6 4 5 7 7 7 7 7 6 3 3 5 6 6 6 6 6 6 6 6 5 3 6 4 2
3 4 2 7 4 6 4 1 3 3 9 10 8 5 6 7 7 7 7 6 6 6 6 7 5 4 5 4 4 4 6 6 6 6 7 6 6 6 5 4 5 4 3 3
5 4 6 6 5 7 7 7 6 8 6 5 4 4 5 7 6 7 7 7 7 6 5 2 4 6 5 5 5 6 6 6 6 7 7 6 7 7 6 4 2 2 3 4
3 5 7 7 3 4 4 6 10 8 9 8 7 3 6 9 5 7 7 3 2 1 2 0 4 4 4 5 6 7 6 6 6 6 6 7 7 6 2 1 4 4 4 4
3 4 10 8 4 2 6 10 8 11 11 10 9 6 3 6 6 2 3 6 5 5 2 3 3 2 6 6 7 7 6 5 6 5 6 6 5 3 2 4 5 4 4 3
4 2 10 7 4 8 8 1 9 8 9 11 7 5 6 6 6 7 7 5 5 4 3 3 4 5 7 7 7 6 6 6 6 5 4 4 5 4 2 5 5 2 3 0
11 9 4 6 5 4 6 6 7 9 6 9 7 6 5 6 7 6 5 3 2 3 3 5 6 5 5 6 6 7 7 7 5 5 4 4 3 3 2 3 2 2 2 2
3 5 9 8 5 4 7 6 6 7 8 9 8 8 7 7 6 5 3 2 1 2 4 5 5 5 5 7 7 6 9 8 3 4 4 3 1 2 3 2 2 3 2 3
5 8 5 7 8 6 6 5 7 7 8 9 8 7 8 6 5 4 3 0 2 3 4 6 5 5 6 6 6 5 5 5 4 2 5 0 2 3 2 4 4 3 3 3
8 9 6 7 7 7 9 9 8 8 6 6 9 9 6 6 4 4 3 1 3 4 4 6 6 6 6 6 5 5 6 6 4 2 3 3 3 2 5 7 8 9 8 6
9 6 8 4 5 6 9 8 6 9 9 13 7 7 6 4 3 4 3 2 3 4 5 6 6 7 7 6 6 4 6 7 5 3 2 3 2 2 3 4 4 5 9 11
7 6 2 4 5 6 7 7 13 13 11 8 7 5 4 4 3 4 2 3 4 4 5 5 7 9 8 7 7 6 6 5 4 3 3 2 3 4 3 2 2 4 4 6
7 7 5 4 6 9 12 13 14 11 8 6 5 6 5 5 3 2 3 3 3 4 4 7 10 12 8 7 7 7 5 4 3 3 3 3 2 3 3 3 3 3 1 3
2 3 5 7 11 12 12 10 13 5 4 2 4 5 5 2 1 3 4 3 1 4 6 7 8 10 8 7 7 6 5 6 3 3 3 3 3 3 3 3 3 3 3 3
5 5 8 12 12 12 11 6 5 6 5 5 6 3 2 3 3 4 4 3 3 6 8 7 8 8 6 6 8 5 4 4 6 4 4 3 3 3 4 4 4 3 4 4
12 16 14 13 13 11 5 3 3 3 3 2 2 2 1 1 4 6 5 5 4 6 8 9 6 6 6 8 7 5 5 5 4 5 4 3 4 3 3 3 4 4 4 3
18 19 14 11 5 5 3 1 1 3 3 2 1 4 4 4 4 5 3 4 6 6 8 5 6 6 8 9 9 4 6 6 4 4 4 4 3 3 3 4 5 4 5 3
10 7 5 5 6 3 1 4 4 3 3 2 1 2 6 6 4 5 2 5 7 8 7 7 7 7 8 9 9 6 7 6 5 4 3 3 4 5 4 5 5 5 4 4
7 6 4 3 1 2 2 2 2 3 3 2 5 6 7 8 6 5 5 5 5 6 7 8 7 6 5 7 7 7 6 5 5 5 5 5 5 5 5 5 5 5 5 4
2 2 1 1 2 4 3 1 1 4 4 4 5 6 8 9 5 8 6 8 6 7 5 5 6 9 8 9 7 7 6 7 6 6 6 6 6 7 8 7 6 6 6 5
1 2 2 1 3 4 5 4 5 5 6 6 6 6 6 6 5 5 7 5 5 6 6 6 8 10 11 7 6 7 7 8 7 7 7 8 8 8 8 8 8 7 7 7
3 5 3 3 2 2 4 5 4 5 5 6 6 6 5 5 5 4 6 7 8 9 6 6 7 11 12 6 5 7 7 7 7 8 8 10 8 8 8 9 9 9 8 8
2 3 2 3 4 4 5 5 5 5 4 5 5 5 7 6 7 5 4 5 8 7 4 4 6 9 7 7 7 7 6 7 7 7 8 8 9 9 9 9 10 10 9 9
3 2 3 4 3 4 5 4 4 5 6 7 6 5 5 4 5 5 5 5 5 4 3 2 5 6 7 7 8 9 9 10 11 9 9 9 9 10 10 10 10 10 9 8
5 5 6 6 5 6 6 8 8 9 7 6 8 7 5 5 5 7 6 2 1 2 3 3 3 4 4 5 5 6 6 7 8 10 10 11 13 11 10 10 10 9 8 8
Wind_Direction
60 28 14 281 169 186 192 185 163 248 203 203 183 166 159 148 147 147 173 184 180 170 179 153 150 172 190 225 269 276 357 332 301 286 273 277 274 272 287 285 298 283 286 276
109 4 3 285 245 245 233 208 259 149 245 189 128 119 151 174 170 184 196 206 191 177 169 188 191 207 225 241 248 249 291 277 287 305 299 284 286 289 273 283 287 263 272 336
255 342 335 337 217 195 194 192 150 185 213 157 167 172 179 187 191 197 211 217 233 242 203 205 207 212 229 240 254 279 284 279 288 292 288 289 284 284 285 290 307 298 336 111
184 19 21 242 299 236 186 253 187 107 159 173 170 184 184 196 190 211 215 235 240 220 221 218 217 243 261 262 277 292 276 270 285 287 289 293 294 276 263 260 267 296 125 105
133 189 293 305 186 153 174 251 194 153 153 175 123 67 278 219 210 206 213 230 230 218 225 199 231 266 302 304 281 275 278 281 285 285 288 292 282 277 276 261 308 109 102 94
117 141 210 242 258 142 110 294 179 165 175 163 134 176 240 199 196 226 227 242 226 291 90 98 305 310 275 269 285 283 283 277 286 295 294 292 295 301 300 53 119 125 109 96
147 229 287 237 211 97 108 235 168 178 181 160 193 192 205 142 208 178 100 95 84 75 61 297 316 352 316 297 278 271 274 286 298 300 303 299 306 283 271 156 113 114 125 116
106 70 277 176 90 165 211 179 179 179 182 190 200 182 185 193 126 116 116 91 78 68 30 1 346 342 309 298 285 284 286 285 285 291 306 321 324 332 105 133 133 127 131 267
183 213 252 232 219 230 171 155 191 174 167 182 176 199 181 132 124 119 115 101 90 68 347 320 319 314 316 304 319 302 290 273 273 296 310 323 327 139 101 115 140 200 208 208
88 252 235 245 265 211 197 198 165 167 168 164 178 161 137 133 140 138 148 107 56 332 306 302 313 332 315 307 305 301 296 280 269 289 303 336 13 118 129 156 213 235 226 229
259 278 289 267 229 213 193 172 157 154 170 175 141 142 140 141 149 147 154 175 306 297 296 299 304 303 295 301 306 305 318 312 305 302 294 235 160 171 194 224 201 203 221 199
231 224 200 229 217 187 177 186 176 149 120 124 138 136 138 145 158 165 184 250 287 300 309 302 298 300 300 305 291 293 317 307 255 235 269 222 196 250 261 255 262 249 229 191
243 215 209 256 254 181 175 170 150 138 138 134 120 132 124 155 186 199 211 270 319 316 300 298 310 310 301 300 295 272 288 295 276 234 237 216 222 209 249 308 315 292 229 221
223 132 242 193 218 158 124 114 119 112 100 100 115 96 143 179 191 220 263 315 330 326 326 327 316 316 305 296 287 275 280 265 254 234 220 226 223 236 220 189 243 293 318 226
220 201 219 139 111 111 119 118 106 107 109 119 132 178 186 195 215 287 339 336 338 326 315 315 316 309 296 288 285 278 283 277 252 256 211 226 233 238 233 225 224 237 289 311
141 145 123 108 112 113 106 100 98 120 118 129 208 211 201 148 46 317 309 318 360 296 290 300 304 288 286 283 286 276 267 254 237 203 212 225 228 239 241 229 234 251 250 241
119 113 107 106 109 93 85 91 139 141 190 200 229 209 65 46 309 292 296 278 240 261 259 255 265 281 287 279 281 271 255 260 220 208 219 215 217 232 245 230 227 244 238 229
76 81 83 93 92 96 132 139 168 181 215 216 155 93 3 269 250 277 276 281 280 276 272 268 278 295 299 293 283 268 255 245 218 226 231 228 227 215 235 232 228 241 256 260
68 76 78 90 125 128 138 123 238 242 220 179 167 258 253 248 256 264 269 288 288 281 276 257 267 278 289 288 284 269 269 247 230 235 226 229 243 247 237 233 235 236 239 245
101 110 116 85 56 61 202 215 225 323 339 189 190 306 294 280 259 273 245 259 260 265 276 271 265 264 270 282 273 274 264 247 226 231 225 226 224 243 243 243 241 233 233 231
89 83 86 116 155 289 314 312 266 287 305 287 290 283 278 285 284 286 291 284 269 265 271 275 271 273 271 278 288 276 266 244 222 229 233 234 235 239 246 241 234 230 224 216
79 95 113 203 223 262 241 187 255 270 262 256 249 260 274 273 258 278 228 249 278 281 281 275 278 279 278 284 292 282 271 247 231 230 233 236 238 244 244 241 239 233 224 207
157 231 248 335 331 308 317 282 259 242 264 262 261 260 245 256 259 266 280 250 247 274 282 271 272 284 289 287 293 288 279 265 251 239 238 234 230 231 238 238 235 234 226 208
359 2 329 346 9 339 310 305 298 275 243 267 256 247 236 270 257 224 241 260 265 275 272 292 310 313 311 297 300 308 295 286 276 269 263 255 252 247 240 235 229 229 230 227
302 292 294 319 319 298 305 295 294 291 299 294 283 264 241 235 234 250 232 258 264 273 268 281 318 321 319 317 314 291 296 299 289 278 277 270 263 255 251 245 239 230 221 223
356 322 306 330 300 308 304 308 287 296 292 281 277 269 269 253 243 259 262 251 255 271 274 313 14 8 9 352 342 343 337 332 325 311 299 277 268 265 261 254 244 235 226 217
23 23 7 359 354 345 340 327 307 299 287 278 283 292 269 282 276 271 256 250 357 18 31 34 19 19 360 345 336 330 333 332 333 331 324 314 310 287 268 259 248 239 225 212